Greeley, CO

3:15 PM MDT on October 14, 2019 (GMT -0600)
Greeley-Weld County

Weather History for KGXY - September, 2019

Change the Weather History Date:

Thursday, September 19, 2019

  Actual Average Record
Temperature  
Mean Temperature 66 °F -  
Max Temperature 86 °F - 94 °F (1980)
Min Temperature 46 °F - 24 °F (1971)
Degree Days  
Heating Degree Days 0    
Month to date heating degree days 8  
Cooling Degree Days 1    
Month to date cooling degree days 99  
Growing Degree Days 16 (Base 50)    
Moisture  
Dew Point 48 °F    
Average Humidity 57    
Maximum Humidity 93    
Minimum Humidity 22    
Precipitation  
Precipitation 0.00 in - 0.42 in (1976)
Snow  
Snow 0.00 in - - ()
Snow Depth 0.00 in    
Sea Level Pressure  
Sea Level Pressure 29.86 in    
Wind  
Wind Speed 6 mph ()    
Max Wind Speed 30 mph    
Max Gust Speed 40 mph    
Visibility 9.7 miles    
Events      
T = Trace of Precipitation, MM = Missing Value Source: Averaged Metar Reports

Daily Weather History Graph

Daily Weather History Graph

Search for Another Location

Airport or City:

Astronomy

Sep. 19, 2019 Rise Set
Actual Time 6:43 AM MDT 7:00 PM MDT
Civil Twilight 6:15 AM MDT 7:28 PM MDT
Nautical Twilight 5:43 AM MDT 8:00 PM MDT
Astronomical Twilight 5:10 AM MDT 8:32 PM MDT
Moon 10:10 PM MDT (9/19) 11:49 AM MDT (9/19)
Length of Visible Light 13h 12m
Length of Day
12h 17m
Waning Gibbous, 74% of the Moon is Illuminated
Sep 19
Waning Gibbous
Sep 21
Last Quarter
Sep 28
New
Oct 5
First Quarter
Oct 13
Full

Hourly Weather History & Observations

Time (MDT) Temp. Dew Point Humidity Pressure Visibility Wind Dir Wind Speed Gust Speed Precip Events Conditions
12:56 AM 55.9 °F 46.9 °F 72% 29.95 in 10.0 mi Calm Calm - N/A   Clear
1:56 AM 55.0 °F 46.9 °F 74% 29.95 in 10.0 mi ENE 4.6 mph - N/A   Clear
2:56 AM 51.1 °F 46.0 °F 83% 29.94 in 10.0 mi WNW 4.6 mph - N/A   Clear
3:56 AM 48.9 °F 45.0 °F 86% 29.94 in 10.0 mi NNW 4.6 mph - N/A   Clear
4:56 AM 48.0 °F 45.0 °F 89% 29.94 in 10.0 mi North 5.8 mph - N/A   Clear
5:56 AM 46.9 °F 44.1 °F 90% 29.94 in 10.0 mi NW 6.9 mph - N/A   Clear
6:56 AM 46.9 °F 44.1 °F 90% 29.97 in 10.0 mi North 6.9 mph - N/A   Clear
7:56 AM 53.1 °F 48.0 °F 83% 29.97 in 10.0 mi Calm Calm - N/A   Clear
8:56 AM 57.9 °F 50.0 °F 75% 29.98 in 10.0 mi West 5.8 mph - N/A   Clear
9:56 AM 63.0 °F 50.0 °F 63% 29.96 in 10.0 mi Calm Calm - N/A   Clear
10:56 AM 70.0 °F 52.0 °F 53% 29.94 in 10.0 mi East 3.5 mph - N/A   Clear
11:56 AM 73.9 °F 53.1 °F 48% 29.91 in 10.0 mi SE 5.8 mph - N/A   Clear
12:56 PM 78.1 °F 48.9 °F 36% 29.88 in 9.0 mi East 5.8 mph - N/A   Clear
1:56 PM 82.9 °F 50.0 °F 32% 29.83 in 9.0 mi ESE 6.9 mph - N/A   Clear
2:56 PM 84.9 °F 46.0 °F 26% 29.81 in 8.0 mi ESE 10.4 mph - N/A   Clear
3:56 PM 86.0 °F 45.0 °F 24% 29.77 in 10.0 mi ESE 10.4 mph - N/A   Clear
4:56 PM 84.9 °F 42.1 °F 22% 29.75 in 10.0 mi ENE 5.8 mph - N/A   Clear
5:56 PM 82.0 °F 48.0 °F 30% 29.75 in 10.0 mi NE 5.8 mph - N/A   Clear
6:56 PM 71.1 °F 52.0 °F 51% 29.77 in 10.0 mi NNE 5.8 mph - N/A   Clear
7:56 PM 70.0 °F 48.9 °F 47% 29.75 in 9.0 mi NE 4.6 mph - N/A   Clear
8:56 PM 66.9 °F 46.9 °F 49% 29.75 in 10.0 mi SSE 11.5 mph - N/A   Clear
9:16 PM 75.2 °F 51.8 °F 44% 29.82 in 8.0 mi SSE 29.9 mph 40.3 mph N/A   Clear
9:56 PM 73.0 °F 53.1 °F 49% 29.73 in 10.0 mi South 24.2 mph 35.7 mph N/A   Clear
10:56 PM 71.1 °F 54.0 °F 55% 29.74 in 10.0 mi South 21.9 mph 27.6 mph N/A   Clear
11:56 PM 68.0 °F 54.0 °F 61% 29.77 in 10.0 mi SSE 10.4 mph - N/A   Clear